Regional Weather Roundup
Issued by NWS

Home | Current Version | Previous Version | Graphics & Text | Print | Product List | Glossary Off
Versions: 1 2 3 4 5 6 7 8 9 10 11 12 13 14 15 16 17 18 19 20 21 22 23 24 25 26 27 28 29 30 31 32 33 34 35 36 37 38 39 40 41 42 43 44 45 46 47 48 49 50

000
ASUS43 KFSD 240802
RWRSD

WEATHER ROUNDUP FOR SOUTH DAKOTA
NATIONAL WEATHER SERVICE SIOUX FALLS SD
300 AM CDT THU APR 24 2014

NOTE: "FAIR" INDICATES FEW OR NO CLOUDS BELOW 12,000 FEET WITH NO
SIGNIFICANT WEATHER AND/OR OBSTRUCTIONS TO VISIBILITY.


SDZ001>005-009-010-012>017-240900-
NORTHWEST AND NORTH CENTRAL SOUTH DAKOTA

CITY           SKY/WX    TMP DP  RH WIND       PRES   REMARKS
BUFFALO          N/A     32  23  69 W13       29.75R WCI  22
FAITH            N/A     44  29  55 W12       29.79R
MOBRIDGE       PTCLDY    33  32  96 CALM      29.74R
$$

SDZ012>016-024>037-041>051-057-063-072>074-240900-
SOUTHWEST AND SOUTH CENTRAL SOUTH DAKOTA

CITY           SKY/WX    TMP DP  RH WIND       PRES   REMARKS
RAPID CTY ARPT MOCLDY    37  24  59 NW10      29.83F
PIERRE         CLOUDY    44  37  76 W10       29.76S
CUSTER         MOCLDY    32  18  56 W5        29.87F WCI  27
ELLSWORTH AFB  MOCLDY    36  24  64 W9        29.83F
PHILIP         CLOUDY    43  33  68 W8        29.81S
PINE RIDGE     CLOUDY    38  34  85 SW3       29.85S
WINNER         FAIR      51  37  58 NW14      29.76S
$$

SDZ004>011-016>023-039-040-240900-
NORTHEAST SOUTH DAKOTA

CITY           SKY/WX    TMP DP  RH WIND       PRES   REMARKS
ABERDEEN       CLOUDY    39  38  96 E5        29.73S
WATERTOWN      CLOUDY    42  37  82 E8        29.71F
SISSETON         N/A     41  39  93 SE9       29.75S
$$

SDZ017-020-022-023-036>040-048>070-240900-
SOUTHEAST SOUTH DAKOTA

CITY           SKY/WX    TMP DP  RH WIND       PRES   REMARKS
SIOUX FALLS    LGT RAIN  47  43  86 E12       29.66F
HURON          LGT RAIN  46  41  82 E5        29.69S
CHAMBERLAIN      N/A     51  38  60 NW15      29.72F
MITCHELL       LGT RAIN  48  42  80 NE7       29.67F
YANKTON        CLOUDY    48  46  93 E5        29.64S
$$

ABBREVIATIONS USED IN REMARKS
   TC - TEMPERATURE IN CELSIUS
  WCI - WIND CHILL INDEX
   HX - HEAT INDEX
  VSB - VISIBILITY




USA.gov is the U.S. government's official web portal to all federal, state and local government web resources and services.